Time,TemperatureF,DewpointF,PressureIn,WindDirection,WindDirectionDegrees,WindSpeedMPH,WindSpeedGustMPH,Humidity,HourlyPrecipIn,Conditions,Clouds,dailyrainin,SoftwareType,DateUTC
2013-01-30 00:01:00,41.0,40.0,30.56,SW,219,0.0,0.0,97,0.00,,,0.22,,2013-01-30 08:01:00,
2013-01-30 00:11:00,41.0,40.0,30.56,SW,219,0.0,0.0,97,0.00,,,0.22,,2013-01-30 08:11:00,
2013-01-30 00:21:00,41.0,40.0,30.56,SW,219,0.0,0.0,97,0.00,,,0.22,,2013-01-30 08:21:00,
2013-01-30 00:32:00,40.0,39.0,30.56,SW,219,0.0,0.0,96,0.00,,,0.21,,2013-01-30 08:32:00,
2013-01-30 00:41:00,40.0,39.0,30.56,SW,219,0.0,0.0,96,0.00,,,0.21,,2013-01-30 08:41:00,
2013-01-30 00:52:00,40.0,39.0,30.56,SW,219,0.0,0.0,96,0.00,,,0.21,,2013-01-30 08:52:00,
2013-01-30 01:01:00,40.0,39.0,30.56,SW,219,0.0,0.0,96,0.00,,,0.21,,2013-01-30 09:01:00,
2013-01-30 01:11:00,40.0,39.0,30.56,SW,219,0.0,0.0,96,0.00,,,0.21,,2013-01-30 09:11:00,
2013-01-30 01:32:00,39.0,38.0,30.57,East,100,0.0,0.0,96,0.00,,,0.21,,2013-01-30 09:32:00,
2013-01-30 01:42:00,39.0,38.0,30.57,East,100,0.0,0.0,96,0.00,,,0.21,,2013-01-30 09:42:00,
2013-01-30 01:52:00,39.0,38.0,30.57,East,100,0.0,0.0,96,0.00,,,0.21,,2013-01-30 09:52:00,
2013-01-30 02:01:00,39.0,38.0,30.57,East,100,0.0,0.0,96,0.00,,,0.21,,2013-01-30 10:01:00,
2013-01-30 02:21:00,39.0,38.0,30.57,East,101,0.0,0.0,97,0.00,,,0.20,,2013-01-30 10:21:00,
2013-01-30 02:31:00,39.0,38.0,30.57,East,101,0.0,0.0,97,0.00,,,0.20,,2013-01-30 10:31:00,
2013-01-30 02:41:00,39.0,38.0,30.57,East,101,0.0,0.0,97,0.00,,,0.20,,2013-01-30 10:41:00,
2013-01-30 02:51:00,39.0,38.0,30.57,East,101,0.0,0.0,97,0.00,,,0.20,,2013-01-30 10:51:00,
2013-01-30 03:01:00,39.0,38.0,30.57,East,101,0.0,0.0,97,0.00,,,0.20,,2013-01-30 11:01:00,
2013-01-30 03:11:00,39.0,38.0,30.57,East,101,0.0,0.0,97,0.00,,,0.20,,2013-01-30 11:11:00,
2013-01-30 03:52:00,39.0,38.0,30.57,East,101,0.0,0.0,97,0.00,,,0.20,,2013-01-30 11:52:00,
2013-01-30 04:02:00,39.0,38.0,30.56,East,101,0.0,0.0,97,0.00,,,0.19,,2013-01-30 12:02:00,
2013-01-30 04:12:00,39.0,38.0,30.56,East,101,0.0,0.0,97,0.00,,,0.19,,2013-01-30 12:12:00,
2013-01-30 04:22:00,39.0,38.0,30.56,East,101,0.0,0.0,97,0.00,,,0.18,,2013-01-30 12:22:00,
2013-01-30 04:32:00,39.0,38.0,30.56,East,101,0.0,0.0,97,0.00,,,0.17,,2013-01-30 12:32:00,
2013-01-30 04:42:00,39.0,38.0,30.56,East,101,0.0,0.0,97,0.00,,,0.17,,2013-01-30 12:42:00,
2013-01-30 05:02:00,39.0,38.0,30.56,East,101,0.0,0.0,97,0.00,,,0.17,,2013-01-30 13:02:00,
2013-01-30 05:12:00,39.0,38.0,30.56,East,101,0.0,0.0,97,0.00,,,0.17,,2013-01-30 13:12:00,
2013-01-30 05:22:00,39.0,38.0,30.56,East,101,0.0,1.0,97,0.00,,,0.17,,2013-01-30 13:22:00,
2013-01-30 05:32:00,39.0,38.0,30.56,East,101,0.0,0.0,97,0.00,,,0.16,,2013-01-30 13:32:00,
2013-01-30 05:42:00,39.0,38.0,30.56,East,101,0.0,0.0,97,0.00,,,0.16,,2013-01-30 13:42:00,
2013-01-30 05:52:00,40.0,39.0,30.56,SW,219,0.0,1.0,97,0.00,,,0.16,,2013-01-30 13:52:00,
2013-01-30 06:02:00,40.0,39.0,30.56,SW,219,0.0,0.0,97,0.00,,,0.15,,2013-01-30 14:02:00,
2013-01-30 06:11:00,40.0,39.0,30.56,SW,219,0.0,0.0,97,0.00,,,0.15,,2013-01-30 14:11:00,
2013-01-30 06:21:00,40.0,39.0,30.56,SW,219,0.0,0.0,97,0.00,,,0.15,,2013-01-30 14:21:00,
2013-01-30 06:32:00,40.0,39.0,30.56,SW,219,0.0,0.0,97,0.00,,,0.15,,2013-01-30 14:32:00,
2013-01-30 07:03:00,40.0,39.0,30.57,SW,219,0.0,1.0,97,0.00,,,0.09,,2013-01-30 15:03:00,
2013-01-30 07:12:00,40.0,39.0,30.57,SW,219,0.0,1.0,97,0.00,,,0.09,,2013-01-30 15:12:00,
2013-01-30 07:23:00,40.0,39.0,30.57,SW,219,0.0,1.0,97,0.00,,,0.09,,2013-01-30 15:23:00,
2013-01-30 07:32:00,40.0,39.0,30.57,SW,219,0.0,1.0,97,0.00,,,0.07,,2013-01-30 15:32:00,
2013-01-30 07:42:00,40.0,39.0,30.57,SW,219,0.0,1.0,97,0.00,,,0.07,,2013-01-30 15:42:00,
2013-01-30 07:53:00,40.0,39.0,30.57,SW,219,0.0,1.0,97,0.00,,,0.07,,2013-01-30 15:53:00,
2013-01-30 08:03:00,40.0,39.0,30.58,SW,219,0.0,2.0,97,0.00,,,0.05,,2013-01-30 16:03:00,
2013-01-30 08:11:00,40.0,39.0,30.58,SW,219,0.0,2.0,97,0.00,,,0.05,,2013-01-30 16:11:00,
2013-01-30 08:22:00,41.0,40.0,30.58,SW,219,0.0,3.0,97,0.00,,,0.05,,2013-01-30 16:22:00,
2013-01-30 08:32:00,41.0,40.0,30.58,SW,219,1.0,3.0,97,0.00,,,0.04,,2013-01-30 16:32:00,
2013-01-30 08:41:00,41.0,40.0,30.58,SW,219,1.0,3.0,97,0.00,,,0.04,,2013-01-30 16:41:00,
2013-01-30 08:51:00,41.0,40.0,30.58,SW,219,1.0,3.0,97,0.00,,,0.04,,2013-01-30 16:51:00,
2013-01-30 09:02:00,41.0,40.0,30.58,SSW,212,1.0,4.0,97,0.00,,,0.03,,2013-01-30 17:02:00,
2013-01-30 09:11:00,41.0,40.0,30.58,SSW,212,1.0,4.0,97,0.00,,,0.03,,2013-01-30 17:11:00,
2013-01-30 09:22:00,41.0,40.0,30.58,SSW,212,1.0,4.0,97,0.00,,,0.03,,2013-01-30 17:22:00,
2013-01-30 09:32:00,42.0,41.0,30.58,SW,220,2.0,3.0,97,0.00,,,0.03,,2013-01-30 17:32:00,
2013-01-30 09:41:00,42.0,41.0,30.58,SW,220,2.0,3.0,97,0.00,,,0.03,,2013-01-30 17:41:00,
2013-01-30 09:53:00,42.0,41.0,30.58,SW,226,0.0,3.0,97,0.00,,,0.03,,2013-01-30 17:53:00,
2013-01-30 10:02:00,42.0,41.0,30.58,South,180,0.0,3.0,97,0.00,,,0.03,,2013-01-30 18:02:00,
2013-01-30 10:11:00,42.0,41.0,30.58,South,180,0.0,3.0,97,0.00,,,0.03,,2013-01-30 18:11:00,
2013-01-30 10:22:00,42.0,41.0,30.58,South,180,0.0,3.0,97,0.00,,,0.03,,2013-01-30 18:22:00,
2013-01-30 10:32:00,43.0,42.0,30.58,SW,216,1.0,4.0,97,0.00,,,0.02,,2013-01-30 18:32:00,
2013-01-30 10:42:00,43.0,42.0,30.58,SW,216,1.0,4.0,97,0.00,,,0.02,,2013-01-30 18:42:00,
2013-01-30 10:52:00,44.0,43.0,30.58,SW,224,0.0,5.0,97,0.00,,,0.02,,2013-01-30 18:52:00,
2013-01-30 11:02:00,44.0,43.0,30.58,SE,128,1.0,4.0,97,0.00,,,0.02,,2013-01-30 19:02:00,
2013-01-30 11:12:00,44.0,43.0,30.58,SE,128,1.0,4.0,97,0.00,,,0.02,,2013-01-30 19:12:00,
2013-01-30 11:21:00,45.0,44.0,30.58,SSW,206,0.0,5.0,97,0.00,,,0.02,,2013-01-30 19:21:00,
2013-01-30 11:32:00,46.0,45.0,30.58,SSE,164,0.0,2.0,96,0.00,,,0.02,,2013-01-30 19:32:00,
2013-01-30 11:42:00,46.0,45.0,30.58,SSE,164,0.0,2.0,96,0.00,,,0.02,,2013-01-30 19:42:00,
2013-01-30 11:52:00,46.0,45.0,30.58,South,190,0.0,3.0,95,0.00,,,0.02,,2013-01-30 19:52:00,
2013-01-30 12:02:00,46.0,45.0,30.57,SSW,193,1.0,4.0,95,0.00,,,0.02,,2013-01-30 20:02:00,
2013-01-30 12:11:00,46.0,45.0,30.57,SSW,193,1.0,4.0,95,0.00,,,0.02,,2013-01-30 20:11:00,
2013-01-30 12:21:00,46.0,45.0,30.57,SSW,193,1.0,4.0,95,0.00,,,0.02,,2013-01-30 20:21:00,
2013-01-30 12:33:00,47.0,46.0,30.56,SW,215,0.0,5.0,95,0.00,,,0.02,,2013-01-30 20:33:00,
2013-01-30 12:41:00,47.0,46.0,30.56,SW,215,0.0,5.0,95,0.00,,,0.02,,2013-01-30 20:41:00,
2013-01-30 12:53:00,47.0,46.0,30.56,SW,215,0.0,2.0,95,0.00,,,0.02,,2013-01-30 20:53:00,
2013-01-30 13:02:00,48.0,46.0,30.55,SW,215,0.0,2.0,94,0.00,,,0.02,,2013-01-30 21:02:00,
2013-01-30 13:11:00,48.0,46.0,30.55,SW,215,0.0,2.0,94,0.00,,,0.02,,2013-01-30 21:11:00,
2013-01-30 13:22:00,48.0,46.0,30.55,SW,215,0.0,2.0,94,0.00,,,0.02,,2013-01-30 21:22:00,
2013-01-30 13:31:00,49.0,48.0,30.55,SW,215,0.0,0.0,95,0.00,,,0.02,,2013-01-30 21:31:00,
2013-01-30 13:42:00,49.0,48.0,30.55,SW,215,0.0,0.0,95,0.00,,,0.02,,2013-01-30 21:42:00,
2013-01-30 13:52:00,49.0,48.0,30.55,SW,215,0.0,0.0,95,0.00,,,0.02,,2013-01-30 21:52:00,
2013-01-30 14:02:00,49.0,48.0,30.55,SW,215,0.0,0.0,95,0.00,,,0.02,,2013-01-30 22:02:00,
2013-01-30 14:11:00,49.0,48.0,30.55,SW,215,0.0,0.0,95,0.00,,,0.02,,2013-01-30 22:11:00,
2013-01-30 14:21:00,51.0,50.0,30.54,SW,215,0.0,1.0,95,0.00,,,0.02,,2013-01-30 22:21:00,
2013-01-30 14:32:00,51.0,50.0,30.54,SW,215,0.0,1.0,95,0.00,,,0.02,,2013-01-30 22:32:00,
2013-01-30 14:41:00,51.0,50.0,30.54,SW,215,0.0,1.0,95,0.00,,,0.02,,2013-01-30 22:41:00,
2013-01-30 14:52:00,52.0,50.0,30.53,NE,34,0.0,2.0,93,0.00,,,0.02,,2013-01-30 22:52:00,
2013-01-30 15:02:00,52.0,50.0,30.53,NE,34,0.0,2.0,92,0.00,,,0.02,,2013-01-30 23:02:00,
2013-01-30 15:11:00,52.0,50.0,30.53,NE,34,0.0,2.0,92,0.00,,,0.02,,2013-01-30 23:11:00,
2013-01-30 15:21:00,52.0,50.0,30.53,NE,34,0.0,2.0,93,0.00,,,0.02,,2013-01-30 23:21:00,
2013-01-30 15:32:00,52.0,50.0,30.53,North,6,0.0,1.0,92,0.00,,,0.02,,2013-01-30 23:32:00,
2013-01-30 15:42:00,52.0,50.0,30.53,North,6,0.0,1.0,92,0.00,,,0.02,,2013-01-30 23:42:00,
2013-01-30 15:52:00,52.0,50.0,30.53,North,6,0.0,1.0,92,0.00,,,0.02,,2013-01-30 23:52:00,
2013-01-30 16:01:00,51.0,49.0,30.53,ENE,74,0.0,0.0,92,0.00,,,0.02,,2013-01-31 00:01:00,
2013-01-30 16:11:00,51.0,49.0,30.53,ENE,74,0.0,0.0,92,0.00,,,0.02,,2013-01-31 00:11:00,
2013-01-30 16:21:00,50.0,48.0,30.52,ENE,74,0.0,0.0,93,0.00,,,0.02,,2013-01-31 00:21:00,
2013-01-30 16:31:00,50.0,48.0,30.52,ENE,74,0.0,0.0,93,0.00,,,0.02,,2013-01-31 00:31:00,
2013-01-30 16:42:00,50.0,48.0,30.52,ENE,74,0.0,0.0,93,0.00,,,0.02,,2013-01-31 00:42:00,
2013-01-30 16:52:00,50.0,48.0,30.52,ENE,74,0.0,0.0,93,0.00,,,0.01,,2013-01-31 00:52:00,
2013-01-30 17:02:00,50.0,48.0,30.51,ENE,74,0.0,0.0,93,0.00,,,0.01,,2013-01-31 01:02:00,
2013-01-30 17:11:00,50.0,48.0,30.51,ENE,74,0.0,0.0,93,0.00,,,0.01,,2013-01-31 01:11:00,
2013-01-30 17:21:00,50.0,48.0,30.51,ENE,74,0.0,0.0,93,0.00,,,0.01,,2013-01-31 01:21:00,
2013-01-30 17:31:00,50.0,48.0,30.51,ENE,74,0.0,0.0,94,0.00,,,0.01,,2013-01-31 01:31:00,
2013-01-30 17:41:00,50.0,48.0,30.51,ENE,74,0.0,0.0,94,0.00,,,0.01,,2013-01-31 01:41:00,
2013-01-30 17:52:00,50.0,48.0,30.51,ENE,74,0.0,0.0,94,0.00,,,0.01,,2013-01-31 01:52:00,
2013-01-30 18:01:00,50.0,48.0,30.51,ENE,74,0.0,0.0,94,0.00,,,0.01,,2013-01-31 02:01:00,
2013-01-30 18:11:00,50.0,48.0,30.51,ENE,74,0.0,0.0,94,0.00,,,0.01,,2013-01-31 02:11:00,
2013-01-30 18:21:00,49.0,47.0,30.50,ENE,74,0.0,0.0,94,0.00,,,0.01,,2013-01-31 02:21:00,
2013-01-30 18:32:00,49.0,47.0,30.50,ENE,74,0.0,0.0,94,0.00,,,0.01,,2013-01-31 02:32:00,
2013-01-30 18:41:00,49.0,47.0,30.50,ENE,74,0.0,0.0,94,0.00,,,0.01,,2013-01-31 02:41:00,
2013-01-30 18:51:00,49.0,47.0,30.50,ENE,74,0.0,0.0,94,0.00,,,0.01,,2013-01-31 02:51:00,
2013-01-30 19:02:00,49.0,47.0,30.50,ENE,74,0.0,0.0,94,0.00,,,0.01,,2013-01-31 03:02:00,
2013-01-30 19:11:00,49.0,47.0,30.50,ENE,74,0.0,0.0,94,0.00,,,0.01,,2013-01-31 03:11:00,
2013-01-30 19:32:00,45.0,43.0,30.49,ENE,74,0.0,0.0,94,0.00,,,0.01,,2013-01-31 03:32:00,
2013-01-30 19:42:00,45.0,43.0,30.49,ENE,74,0.0,0.0,94,0.00,,,0.01,,2013-01-31 03:42:00,
2013-01-30 19:52:00,45.0,44.0,30.48,ENE,74,0.0,0.0,95,0.00,,,0.01,,2013-01-31 03:52:00,
2013-01-30 20:02:00,45.0,44.0,30.48,ENE,74,0.0,0.0,95,0.00,,,0.01,,2013-01-31 04:02:00,
2013-01-30 20:11:00,45.0,44.0,30.48,ENE,74,0.0,0.0,95,0.00,,,0.01,,2013-01-31 04:11:00,
2013-01-30 20:22:00,43.0,42.0,30.49,ENE,74,0.0,0.0,95,0.00,,,0.00,,2013-01-31 04:22:00,
2013-01-30 20:31:00,43.0,42.0,30.49,ENE,74,0.0,0.0,95,0.00,,,0.00,,2013-01-31 04:31:00,
2013-01-30 20:41:00,43.0,42.0,30.49,ENE,74,0.0,0.0,95,0.00,,,0.00,,2013-01-31 04:41:00,
2013-01-30 20:51:00,42.0,41.0,30.49,ENE,74,0.0,0.0,95,0.00,,,0.00,,2013-01-31 04:51:00,
2013-01-30 21:03:00,42.0,41.0,30.49,ENE,74,0.0,0.0,95,0.00,,,0.00,,2013-01-31 05:03:00,
2013-01-30 21:11:00,42.0,41.0,30.49,ENE,74,0.0,0.0,95,0.00,,,0.00,,2013-01-31 05:11:00,
2013-01-30 21:21:00,42.0,41.0,30.49,ENE,74,0.0,0.0,95,0.00,,,0.00,,2013-01-31 05:21:00,
2013-01-30 21:42:00,41.0,40.0,30.49,ENE,74,0.0,0.0,96,0.00,,,0.00,,2013-01-31 05:42:00,
2013-01-30 21:52:00,41.0,40.0,30.49,ENE,74,0.0,0.0,96,0.00,,,0.00,,2013-01-31 05:52:00,
2013-01-30 22:01:00,41.0,40.0,30.49,ENE,74,0.0,0.0,96,0.00,,,0.00,,2013-01-31 06:01:00,
2013-01-30 22:10:00,41.0,40.0,30.49,ENE,74,0.0,0.0,96,0.00,,,0.00,,2013-01-31 06:10:00,